Regional Weather Roundup
Issued by NWS

Home | Current Version | Previous Version | Text Only | Print | Product List | Glossary On
Versions: 1 2 3 4 5 6 7 8 9 10 11 12 13 14 15 16 17 18 19 20 21 22 23 24 25 26 27 28 29 30 31 32 33 34 35 36 37 38 39 40 41 42 43 44 45 46 47 48 49 50
000
ASUS42 KKEY 012310
RWRKEY

FLORIDA REGIONAL WEATHER ROUNDUP FOR THE FLORIDA KEYS
NATIONAL WEATHER SERVICE KEY WEST FLORIDA
700 PM EDT WED JUL 01 2015

...SOUTH FLORIDA AND THE KEYS...

CITY           SKY/WX    TMP DP  RH WIND       PRES   REMARKS
FORT MYERS     TSTM      76  68  76 SW10      30.10F
SW REGIONAL AP TSTM      73  68  84 S14       30.11F
NAPLES         TSTM      77  70  79 N8        30.13R
MIAMI          MOSUNNY   88  72  58 E7        30.10R HX  94
WEST KENDALL   PTSUNNY   88  75  65 E7        30.10S HX  97
HOMESTEAD      SUNNY     87  74  63 E6        30.10R HX  95
MARATHON       SUNNY     88  76  67 E8        30.09R HX  99
BOCA CHICA NAS PTSUNNY   87  74  64 E12       30.08R HX  95
KEY WEST INTL  MOSUNNY   88  77  69 E10       30.08R HX 100

...INTERNATIONAL WEATHER...

CITY           SKY/WX    TMP DP  RH WIND       PRES   REMARKS
NASSAU BAHAMAS PTSUNNY   86  73  66 E8        30.11R HX  93
CANCUN MEXICO  MOSUNNY   86  79  79 E8        30.00R HX  99
COZUMEL MEXICO PTSUNNY   72  72 100 CALM      30.00R

ADJACENT COASTAL WATERS...

STATION/POSITION TIME  SKY/WX   TEMP    WIND        PRES    WAVE
                                AIR SEA DIR/SP/G            HT/PER
                 (UTC)          (F)     (DEG/KT/KT) (MB)    (FT/S)
PULASKI SHOAL LI 2200            86     100/  7/  7 1018.2R
SAND KEY         2250            85      90/ 13/ 15 1018.4R
SOMBRERO KEY     2200            86      90/ 12/ 13 1019.0F
LONG KEY         2200            86 90  100/ 10/ 11 1019.4S
MOLASSES REEF    2200            85 86  100/  8/ 10 1018.8F
FOWEY ROCKS      NOT AVBL

$$


USA.gov is the U.S. government's official web portal to all federal, state and local government web resources and services.